Date String (YYYY-MM-DD hh:mm:ss) UTC,Instrument flags,absolute air pressure of the measurement (hPa),sample flow rate (lpm),inlet stack bypass flow (lpm),air temperature of the measurement (°C),ambient temperature measured by the external sensor (°C),aerosol sample conditioner tube jacket temperature (°C),OPC LED temperature (°C),internal box temperature (°C),relative humidity of the measurement (%),span deviation,mass concentration of particles derived from Lorenz-Mie calculation of OPC scattering (μg/m³),mass concentration of particles derived from Lorenz-Mie calculation of OPC scattering (μg/m³),mass concentration of particles derived from Lorenz-Mie calculation of OPC scattering (μg/m³)
DateTimeUTC,F1_M11,P_M11,Q1_M11,Q2_M11,T1_M11,T2_M11,T3_M11,T4_M11,T5_M11,U1_M11,ZSPAN_M11,X2_M11,X0_M11,X1_M11
2023-08-13 03:00:00,SystemResetWarning,0831.1,5.00,000.00,029.0,026.7,000.0,037.5,030.6,24.0,0000.0,0003.68,0005.93,0003.32
2023-08-13 03:01:00,SystemResetWarning,0831.1,5.01,000.00,029.0,027.0,000.0,037.5,030.7,24.0,0000.0,0003.70,0005.97,0003.34
2023-08-13 03:02:00,SystemResetWarning,0831.1,5.00,000.00,029.1,027.3,000.0,037.5,030.8,24.0,0000.0,0003.71,0005.99,0003.35
2023-08-13 03:03:00,SystemResetWarning,0831.1,5.00,000.00,029.1,027.5,000.0,037.6,030.9,24.0,0000.0,0003.71,0006.24,0003.36
2023-08-13 03:04:00,SystemResetWarning,0831.2,5.00,000.00,029.1,027.7,000.0,037.6,030.9,24.1,0000.0,0003.72,0006.29,0003.37
2023-08-13 03:05:00,SystemResetWarning,0831.2,5.00,000.00,029.2,027.9,000.0,037.6,031.0,24.1,0000.0,0003.76,0006.65,0003.38
2023-08-13 03:06:00,SystemResetWarning,0831.2,4.99,000.00,029.2,028.0,000.0,037.6,031.0,24.1,0000.0,0003.79,0006.87,0003.39
2023-08-13 03:07:00,SystemResetWarning,0831.2,4.98,000.00,029.3,026.8,000.0,037.5,030.8,24.2,0000.0,0003.78,0007.06,0003.39
2023-08-13 03:08:00,SystemResetWarning,0831.1,5.01,000.00,029.2,025.0,000.0,037.4,030.4,24.2,0000.0,0003.79,0007.20,0003.40
2023-08-13 03:09:00,SystemResetWarning,0831.1,5.01,000.00,029.1,024.5,000.0,037.3,030.2,24.3,0000.0,0003.82,0007.28,0003.40
2023-08-13 03:10:00,SystemResetWarning,0831.2,5.01,000.00,028.9,024.7,000.0,037.3,030.1,24.7,0000.0,0003.82,0007.28,0003.40
2023-08-13 03:11:00,SystemResetWarning,0831.2,4.99,000.00,028.9,025.2,000.0,037.4,030.2,24.9,0000.0,0003.81,0007.23,0003.40
2023-08-13 03:12:00,SystemResetWarning,0831.2,5.01,000.00,028.9,025.7,000.0,037.4,030.3,24.7,0000.0,0003.83,0007.29,0003.40
2023-08-13 03:13:00,SystemResetWarning,0831.2,5.00,000.00,028.9,026.1,000.0,037.4,030.4,24.5,0000.0,0003.84,0007.25,0003.41
2023-08-13 03:14:00,SystemResetWarning,0831.2,5.00,000.00,028.9,026.5,000.0,037.4,030.5,24.2,0000.0,0003.85,0007.22,0003.41
2023-08-13 03:15:00,SystemResetWarning,0831.3,5.00,000.00,028.9,026.9,000.0,037.4,030.6,23.9,0000.0,0003.87,0007.54,0003.42
2023-08-13 03:16:00,SystemResetWarning,0831.2,5.00,000.00,028.9,027.2,000.0,037.4,030.7,23.8,0000.0,0003.84,0007.39,0003.42
2023-08-13 03:17:00,SystemResetWarning,0831.2,5.00,000.00,029.0,027.4,000.0,037.5,030.7,23.9,0000.0,0003.81,0007.11,0003.42
2023-08-13 03:18:00,SystemResetWarning,0831.2,5.00,000.00,029.0,027.6,000.0,037.5,030.8,23.9,0000.0,0003.77,0006.68,0003.41
2023-08-13 03:19:00,SystemResetWarning,0831.2,5.00,000.00,029.1,027.8,000.0,037.5,030.8,24.0,0000.0,0003.75,0006.43,0003.41
2023-08-13 03:20:00,SystemResetWarning,0831.2,5.00,000.00,029.1,027.9,000.0,037.5,030.9,23.9,0000.0,0003.73,0006.47,0003.40
2023-08-13 03:21:00,SystemResetWarning,0831.2,5.00,000.00,029.2,028.1,000.0,037.6,031.0,23.9,0000.0,0003.72,0006.37,0003.40
2023-08-13 03:22:00,SystemResetWarning,0831.2,4.99,000.00,029.2,028.1,000.0,037.6,031.0,23.8,0000.0,0003.73,0006.47,0003.40
2023-08-13 03:23:00,SystemResetWarning,0831.1,4.98,000.00,029.2,026.8,000.0,037.5,030.8,23.8,0000.0,0003.70,0006.41,0003.39
2023-08-13 03:24:00,SystemResetWarning,0831.1,5.01,000.00,029.1,025.6,000.0,037.4,030.4,23.8,0000.0,0003.70,0006.39,0003.39
2023-08-13 03:25:00,SystemResetWarning,0831.1,5.02,000.00,029.1,025.5,000.0,037.4,030.3,23.7,0000.0,0003.70,0006.36,0003.39
2023-08-13 03:26:00,SystemResetWarning,0831.1,5.00,000.00,029.0,025.8,000.0,037.4,030.3,23.7,0000.0,0003.72,0006.23,0003.39
2023-08-13 03:27:00,SystemResetWarning,0831.1,4.99,000.00,029.0,026.2,000.0,037.4,030.4,23.8,0000.0,0003.74,0006.40,0003.38
2023-08-13 03:28:00,SystemResetWarning,0831.1,5.00,000.00,029.0,026.5,000.0,037.5,030.5,23.9,0000.0,0003.78,0007.23,0003.38
2023-08-13 03:29:00,SystemResetWarning,0831.2,5.00,000.00,029.0,026.9,000.0,037.5,030.6,24.0,0000.0,0003.81,0007.35,0003.39
2023-08-13 03:30:00,SystemResetWarning,0831.2,4.99,000.00,029.0,027.2,000.0,037.5,030.7,23.9,0000.0,0003.84,0007.49,0003.39
2023-08-13 03:31:00,SystemResetWarning,0831.2,5.00,000.00,029.1,027.4,000.0,037.5,030.8,24.0,0000.0,0003.84,0007.36,0003.39
2023-08-13 03:32:00,SystemResetWarning,0831.2,5.00,000.00,029.1,027.6,000.0,037.5,030.8,24.0,0000.0,0003.85,0007.72,0003.39
2023-08-13 03:33:00,SystemResetWarning,0831.2,5.00,000.00,029.1,027.8,000.0,037.6,030.9,24.0,0000.0,0003.85,0007.89,0003.38
2023-08-13 03:34:00,SystemResetWarning,0831.2,5.00,000.00,029.2,027.9,000.0,037.6,030.9,23.9,0000.0,0003.85,0007.87,0003.37
2023-08-13 03:35:00,SystemResetWarning,0831.2,5.01,000.00,029.2,028.1,000.0,037.6,031.0,23.8,0000.0,0003.84,0007.97,0003.37
2023-08-13 03:36:00,SystemResetWarning,0831.2,5.01,000.00,029.3,028.1,000.0,037.6,031.0,23.9,0000.0,0003.82,0008.14,0003.36
2023-08-13 03:37:00,SystemResetWarning,0831.2,4.99,000.00,029.3,026.6,000.0,037.5,030.7,23.9,0000.0,0003.80,0008.59,0003.35
2023-08-13 03:38:00,SystemResetWarning,0831.1,5.01,000.00,029.2,025.6,000.0,037.4,030.6,24.1,0000.0,0003.77,0008.58,0003.35
2023-08-13 03:39:00,SystemResetWarning,0831.1,5.00,000.00,029.1,025.7,000.0,037.4,030.5,24.3,0000.0,0003.76,0008.71,0003.34
2023-08-13 03:40:00,SystemResetWarning,0831.1,4.99,000.00,029.1,026.0,000.0,037.5,030.4,24.4,0000.0,0003.75,0008.70,0003.34
2023-08-13 03:41:00,SystemResetWarning,0831.1,4.99,000.00,029.0,026.3,000.0,037.5,030.5,24.5,0000.0,0003.71,0008.61,0003.33
2023-08-13 03:42:00,SystemResetWarning,0831.1,5.01,000.00,029.1,026.7,000.0,037.5,030.6,24.5,0000.0,0003.69,0008.56,0003.34
2023-08-13 03:43:00,SystemResetWarning,0831.1,5.01,000.00,029.1,027.0,000.0,037.6,030.7,24.5,0000.0,0003.70,0008.24,0003.34
2023-08-13 03:44:00,SystemResetWarning,0831.0,5.00,000.00,029.1,027.3,000.0,037.6,030.8,24.5,0000.0,0003.70,0008.12,0003.33
2023-08-13 03:45:00,SystemResetWarning,0831.0,4.99,000.00,029.1,027.5,000.0,037.6,030.8,24.5,0000.0,0003.69,0008.10,0003.33
2023-08-13 03:46:00,SystemResetWarning,0831.0,4.99,000.00,029.2,027.7,000.0,037.6,030.9,24.3,0000.0,0003.68,0007.97,0003.31
2023-08-13 03:47:00,SystemResetWarning,0831.1,5.00,000.00,029.2,027.9,000.0,037.6,031.0,24.3,0000.0,0003.67,0007.76,0003.30
2023-08-13 03:48:00,SystemResetWarning,0831.1,5.00,000.00,029.3,028.0,000.0,037.7,031.0,24.2,0000.0,0003.67,0007.21,0003.29
2023-08-13 03:49:00,SystemResetWarning,0831.1,5.00,000.00,029.3,028.1,000.0,037.7,031.0,24.2,0000.0,0003.66,0006.97,0003.29
2023-08-13 03:50:00,SystemResetWarning,0831.1,5.00,000.00,029.3,028.0,000.0,037.7,031.0,24.2,0000.0,0003.64,0006.54,0003.28
2023-08-13 03:51:00,SystemResetWarning,0831.1,4.99,000.00,029.3,026.3,000.0,037.6,030.8,24.2,0000.0,0003.63,0006.48,0003.27
2023-08-13 03:52:00,SystemResetWarning,0831.1,5.01,000.00,029.2,025.5,000.0,037.5,030.6,24.3,0000.0,0003.63,0006.49,0003.26
2023-08-13 03:53:00,SystemResetWarning,0831.1,5.01,000.00,029.2,025.7,000.0,037.5,030.5,24.4,0000.0,0003.63,0006.53,0003.26
2023-08-13 03:54:00,SystemResetWarning,0831.0,4.99,000.00,029.1,026.0,000.0,037.5,030.5,24.5,0000.0,0003.59,0007.57,0003.24
2023-08-13 03:55:00,SystemResetWarning,0831.0,5.01,000.00,029.1,026.3,000.0,037.6,030.6,24.6,0000.0,0003.56,0007.64,0003.24
2023-08-13 03:56:00,SystemResetWarning,0831.1,5.01,000.00,029.1,026.7,000.0,037.6,030.7,24.6,0000.0,0003.55,0008.17,0003.21
2023-08-13 03:57:00,SystemResetWarning,0831.1,5.00,000.00,029.1,027.0,000.0,037.6,030.8,24.6,0000.0,0003.53,0008.24,0003.20
2023-08-13 03:58:00,SystemResetWarning,0831.1,5.00,000.00,029.1,027.3,000.0,037.6,030.8,24.6,0000.0,0003.51,0008.16,0003.20
2023-08-13 03:59:00,SystemResetWarning,0831.2,4.99,000.00,029.2,027.5,000.0,037.6,030.9,24.6,0000.0,0003.49,0008.74,0003.19
